Location: Burgberg
(50.1428°N, 11.0671°E)
Time: 19:14:34
(UTC+00:00)

Nadezhda 3 Rocket - Pass Details

Date: 26 January 2020
Orbit: 957 x 999 km, 82.9° (Epoch: 16 February)

Event Time Altitude Azimuth Distance (km) Brightness Sun altitude
Rises 05:12:46 0° 176° (S) 3,626 7.2 -16.8°
Reaches altitude 10° 05:15:16 10° 174° (S) 2,686 6.5 -16.4°
Maximum altitude 05:21:19 64° 94° (E) 1,060 4.5 -15.4°
Drops below altitude 10° 05:27:28 10° 15° (NNE) 2,723 6.4 -14.5°
Sets 05:30:01 0° 12° (NNE) 3,680 7.0 -14.1°
